Showing default

QIANFAN-25, 61558

Orbit data source: Space-Track

QIANFAN-25, 61558 is a Chinese payload satellite in LEO that was launched on Tue, 15 Oct 2024 UTC via a CHANG ZHENG 6A launch vehicle from the Taiyaun Space Center, China (TSC). Payload-class satellites include a variety of spacecraft equipped with specific instruments for various scientific and technological missions. These include communications satellites like Starlink; space stations such as the ISS; scientific satellites like the Hubble; Earth observation satellites from companies like Planet Labs, Umbra, and HawkEye 360; GPS; miniature CubeSats for education and research; and military/defense satellites.

Loading next visibility...
Identifier
61558, 2024-185G
Orbit
LEO
Country
Flag of CNCN / PRC
Related business
Manufacturer
GESIH/SECM
Mission
Partially operational Commercial Communications
Bus & Motor
QIANFAN, Unknown motor
Mass
267 kg wet, ~267 kg dry
Launch date (UTC)
2024-10-15 (2 years ago)
Launch vehicle
CHANG ZHENG 6A
Launch site
Taiyaun Space Center, China (TSC)
Object type
Payload
Rocket body
Debris
Shape & HBR
Box + 1 Pan, 5.0 m
Radar Cross Section
13.200 m², Large (>1 m²)

Expand to show TLE details & history
Last TLE update: 5 hours ago

TLE from 5 hours ago
0 QIANFAN-25
1 61558U 24185G   26193.16263887  .00000222  00000-0  12645-3 0  9994
2 61558  88.9805  54.2645 0012888  41.1451 319.0700 14.06094065 99210
Epoch: 2026-07-12T03:54Z
TLE epoch observation values (Epoch: 2026-07-12T03:54:11.998Z)
Latitude
-0.00007°
Longitude
65.64905°
Altitude
868.745 km
Speed
7.422 km/s
True Right ascension
03h 37m 03s
True Declination
0° 00' 00"
Sunlit
Object was in daylight at epoch
Visualization orbit readout
Latitude
Unknown
Longitude
Unknown
Altitude
Unknown
Speed
Unknown
Apparent Right ascension
Unknown
Apparent Declination
Unknown
Sunlit
N/A
Visualization observer readout
Local Sidereal Time
20:53:14
Azimuth
Unknown
Elevation
Unknown
Doppler factor
Unknown
Orbital elements
Apogee altitude
879.081 km
Perigee altitude
860.399 km
Semi-major axis
7,247.877 km
Eccentricity
0.00129
Inclination
88.9805°
RAAN
54.2645°
Arg. of periapsis
41.1451°
True anomaly
318.97313°
Mean anomaly
319.07°
Eccentric anomaly
319.02158°
Mean motion
3.51744 °/min
Orbital period
102.35 mins
BSTAR
0.00012645
Loading maneuver chart data...
Computing Atmospheric mass density...
Loading historical data...
Loading historical data...
Loading historical data...
Loading historical data...
Loading historical data...
Loading historical data...
Loading historical data...

Documentation

Showing up to 5 results
|